ACA639 CYYZ-CYQR

Flight info

Callsign ACA639
Flight time N/A
Altitude 36000
Route AVSEP7 MUSIT DCT SSM DCT AGLIN/N0452F380 Q831 GABOV Q828 EMLIK DCT KEMKA KEMKA6
Aircraft B38M/M-SDE1FGHILORVWXY/HB1

Departure

Time N/A
Airport Toronto Pearson International Airport (CYYZ)

Arrival

Time 2026-04-12 11:04
Airport Regina International Airport (CYQR)
Time Latitude Longitude Altitude Speed Heading
2026-04-12 10:42 50.47908 -104.78842 35859 ft 339 kts 269°
2026-04-12 10:43 50.47887 -104.86330 35695 ft 343 kts 268°
2026-04-12 10:43 50.47873 -104.90111 34910 ft 350 kts 268°
2026-04-12 10:43 50.47854 -104.93986 34012 ft 361 kts 268°
2026-04-12 10:44 50.47830 -104.97983 32996 ft 371 kts 269°
2026-04-12 10:44 50.47800 -105.02071 32132 ft 378 kts 269°
2026-04-12 10:44 50.47770 -105.06189 31637 ft 375 kts 269°
2026-04-12 10:44 50.47785 -105.10258 31147 ft 372 kts 275°
2026-04-12 10:45 50.48451 -105.14162 30689 ft 373 kts 293°
2026-04-12 10:45 50.49931 -105.17511 30195 ft 379 kts 311°
2026-04-12 10:45 50.52085 -105.19934 29667 ft 387 kts 329°
2026-04-12 10:45 50.54688 -105.21144 29125 ft 397 kts 348°
2026-04-12 10:46 50.57472 -105.20981 28607 ft 407 kts
2026-04-12 10:46 50.60145 -105.19419 28165 ft 415 kts 25°
2026-04-12 10:46 50.62429 -105.16593 27672 ft 422 kts 44°
2026-04-12 10:46 50.64082 -105.12774 27191 ft 426 kts 63°
2026-04-12 10:47 50.64942 -105.08308 26719 ft 426 kts 82°
2026-04-12 10:47 50.65132 -105.03665 26234 ft 425 kts 88°
2026-04-12 10:47 50.65207 -104.99084 25802 ft 423 kts 89°
2026-04-12 10:47 50.65279 -104.94461 25393 ft 420 kts 89°
2026-04-12 10:48 50.65353 -104.89871 24931 ft 419 kts 89°
2026-04-12 10:48 50.65427 -104.85231 24145 ft 428 kts 89°
2026-04-12 10:48 50.65504 -104.80480 23213 ft 439 kts 88°
2026-04-12 10:48 50.65585 -104.75611 22150 ft 450 kts 88°
2026-04-12 10:49 50.65674 -104.70670 21444 ft 450 kts 88°
2026-04-12 10:49 50.65766 -104.65758 20914 ft 446 kts 88°
2026-04-12 10:49 50.65862 -104.60884 20407 ft 442 kts 88°
2026-04-12 10:49 50.65958 -104.56058 19891 ft 438 kts 88°
2026-04-12 10:50 50.66057 -104.51292 19441 ft 433 kts 88°
2026-04-12 10:50 50.66161 -104.46560 18964 ft 430 kts 88°
2026-04-12 10:50 50.66269 -104.41864 18491 ft 427 kts 88°
2026-04-12 10:50 50.66380 -104.37206 18022 ft 424 kts 88°
2026-04-12 10:51 50.66494 -104.32598 17553 ft 419 kts 88°
2026-04-12 10:51 50.66610 -104.28039 17154 ft 413 kts 88°
2026-04-12 10:51 50.66731 -104.23545 16882 ft 405 kts 88°
2026-04-12 10:51 50.66850 -104.19169 16652 ft 395 kts 88°
2026-04-12 10:52 50.66971 -104.14884 16442 ft 386 kts 88°
2026-04-12 10:52 50.67091 -104.10707 16266 ft 377 kts 88°
2026-04-12 10:52 50.67208 -104.06629 16088 ft 368 kts 88°
2026-04-12 10:52 50.67309 -104.02660 15838 ft 361 kts 91°
2026-04-12 10:53 50.66804 -103.98818 15281 ft 358 kts 119°
2026-04-12 10:53 50.65344 -103.95800 14787 ft 348 kts 146°
2026-04-12 10:53 50.63238 -103.94147 14303 ft 334 kts 173°
2026-04-12 10:53 50.60975 -103.94157 13852 ft 322 kts 196°
2026-04-12 10:54 50.58834 -103.95082 13401 ft 317 kts 204°
2026-04-12 10:54 50.56895 -103.96652 12923 ft 311 kts 220°
2026-04-12 10:54 50.55222 -103.98785 12489 ft 309 kts 221°
2026-04-12 10:54 50.53564 -104.00911 12065 ft 307 kts 222°
2026-04-12 10:55 50.51919 -104.03050 11638 ft 306 kts 222°
2026-04-12 10:55 50.50280 -104.05195 11110 ft 308 kts 221°
2026-04-12 10:55 50.49186 -104.06621 10693 ft 312 kts 221°
2026-04-12 10:55 50.47497 -104.08827 10043 ft 317 kts 221°
2026-04-12 10:56 50.45789 -104.11061 9378 ft 323 kts 221°
2026-04-12 10:56 50.44058 -104.13335 8765 ft 325 kts 221°
2026-04-12 10:56 50.42338 -104.15614 8322 ft 322 kts 220°
2026-04-12 10:56 50.40098 -104.18592 7854 ft 315 kts 220°
2026-04-12 10:57 50.38990 -104.20066 7671 ft 303 kts 220°
2026-04-12 10:57 50.37443 -104.22121 7540 ft 281 kts 220°
2026-04-12 10:57 50.36002 -104.24020 7439 ft 261 kts 220°
2026-04-12 10:57 50.34749 -104.25931 7325 ft 247 kts 236°
2026-04-12 10:58 50.34090 -104.28380 7043 ft 242 kts 250°
2026-04-12 10:58 50.33576 -104.30765 6801 ft 235 kts 249°
2026-04-12 10:58 50.33058 -104.33170 6499 ft 231 kts 249°
2026-04-12 10:58 50.32564 -104.35495 6233 ft 226 kts 249°
2026-04-12 10:59 50.32078 -104.37802 5975 ft 219 kts 249°
2026-04-12 10:59 50.31610 -104.40033 5740 ft 212 kts 248°
2026-04-12 10:59 50.31159 -104.42189 5509 ft 205 kts 248°
2026-04-12 10:59 50.30724 -104.44269 5301 ft 197 kts 248°
2026-04-12 11:00 50.30423 -104.46317 5066 ft 198 kts 267°
2026-04-12 11:00 50.30840 -104.48375 4794 ft 204 kts 300°
2026-04-12 11:00 50.31802 -104.49980 4579 ft 200 kts 314°
2026-04-12 11:00 50.32811 -104.51421 4383 ft 191 kts 314°
2026-04-12 11:01 50.33784 -104.52804 4195 ft 186 kts 314°
2026-04-12 11:01 50.34704 -104.54106 4053 ft 169 kts 313°
2026-04-12 11:01 50.35563 -104.55328 3951 ft 166 kts 313°
2026-04-12 11:01 50.36427 -104.56542 3773 ft 167 kts 313°
2026-04-12 11:02 50.37288 -104.57753 3607 ft 167 kts 313°
2026-04-12 11:02 50.38152 -104.58965 3332 ft 167 kts 313°
2026-04-12 11:02 50.39023 -104.60171 2909 ft 167 kts 315°
2026-04-12 11:02 50.39870 -104.61371 2681 ft 163 kts 315°
2026-04-12 11:03 50.40695 -104.62559 2406 ft 160 kts 317°
2026-04-12 11:03 50.41515 -104.63716 2153 ft 158 kts 318°
2026-04-12 11:03 50.42333 -104.64863 1979 ft 161 kts 319°
2026-04-12 11:03 50.43159 -104.66018 1900 ft 145 kts 319°
2026-04-12 11:04 50.43713 -104.66804 1900 ft 74 kts 318°
2026-04-12 11:04 50.43963 -104.67152 1903 ft 23 kts 318°
2026-04-12 11:04 50.44044 -104.67124 1904 ft 13 kts 77°
2026-04-12 11:04 50.44044 -104.67036 1907 ft 8 kts 92°
2026-04-12 11:05 50.44042 -104.66939 1902 ft 10 kts 93°
2026-04-12 11:05 50.44000 -104.66848 1894 ft 10 kts 147°
2026-04-12 11:05 50.43943 -104.66767 1898 ft 12 kts 135°
2026-04-12 11:05 50.43874 -104.66662 1897 ft 15 kts 136°
2026-04-12 11:06 50.43789 -104.66542 1894 ft 18 kts 139°
2026-04-12 11:06 50.43718 -104.66443 1903 ft 12 kts 138°
2026-04-12 11:06 50.43649 -104.66344 1907 ft 15 kts 137°
2026-04-12 11:06 50.43565 -104.66226 1896 ft 17 kts 138°
2026-04-12 11:07 50.43479 -104.66106 1900 ft 13 kts 138°
2026-04-12 11:07 50.43413 -104.66013 1897 ft 13 kts 137°
2026-04-12 11:07 50.43349 -104.65921 1900 ft 9 kts 137°
2026-04-12 11:07 50.43301 -104.65855 1903 ft 7 kts 138°
2026-04-12 11:08 50.43259 -104.65796 1905 ft 8 kts 136°
2026-04-12 11:08 50.43262 -104.65733 1905 ft 7 kts 50°
2026-04-12 11:08 50.43286 -104.65693 1899 ft 3 kts 47°
2026-04-12 11:08 50.43294 -104.65680 1903 ft 2 kts 47°
2026-04-12 11:09 50.43297 -104.65675 1905 ft 0 kts 47°